DAL411 KMDW-KCMH

Flight info

Callsign DAL411
Flight time 0h 47m
Altitude 29000
Route LEWKE GIJ SEWTO FWA BRYEN DUBLN1
Aircraft A320/M-SDE3FGHIRWY/LB1

Departure

Time 2026-05-07 12:29
Airport Chicago Midway International Airport (KMDW)

Arrival

Time 2026-05-07 13:17
Airport John Glenn Columbus International Airport (KCMH)
Time Latitude Longitude Altitude Speed Heading
2026-05-07 12:15 41.78764 -87.74534 620 ft 0 kts 116°
2026-05-07 12:20 41.78770 -87.74550 620 ft 3 kts 117°
2026-05-07 12:20 41.78780 -87.74574 633 ft 3 kts 120°
2026-05-07 12:21 41.78790 -87.74597 632 ft 3 kts 119°
2026-05-07 12:21 41.78799 -87.74621 628 ft 3 kts 110°
2026-05-07 12:21 41.78804 -87.74645 632 ft 3 kts 74°
2026-05-07 12:21 41.78799 -87.74657 625 ft 1 kts 43°
2026-05-07 12:22 41.78797 -87.74660 623 ft 1 kts 43°
2026-05-07 12:25 41.78798 -87.74659 620 ft 1 kts 43°
2026-05-07 12:25 41.78817 -87.74635 623 ft 4 kts 43°
2026-05-07 12:26 41.78835 -87.74613 625 ft 3 kts 44°
2026-05-07 12:26 41.78853 -87.74590 625 ft 4 kts 44°
2026-05-07 12:26 41.78873 -87.74564 621 ft 4 kts 44°
2026-05-07 12:26 41.78894 -87.74537 619 ft 4 kts 44°
2026-05-07 12:27 41.78915 -87.74510 624 ft 6 kts 44°
2026-05-07 12:27 41.78962 -87.74451 620 ft 12 kts 44°
2026-05-07 12:27 41.79008 -87.74391 624 ft 16 kts 44°
2026-05-07 12:27 41.79117 -87.74258 620 ft 13 kts 27°
2026-05-07 12:28 41.79164 -87.74269 620 ft 9 kts 327°
2026-05-07 12:28 41.79182 -87.74337 615 ft 7 kts 257°
2026-05-07 12:28 41.79151 -87.74372 618 ft 4 kts 224°
2026-05-07 12:28 41.79149 -87.74374 624 ft 0 kts 224°
2026-05-07 12:29 41.79071 -87.74475 623 ft 53 kts 224°
2026-05-07 12:29 41.78575 -87.75103 621 ft 140 kts 224°
2026-05-07 12:29 41.77841 -87.76039 1382 ft 146 kts 225°
2026-05-07 12:30 41.77081 -87.76977 2305 ft 151 kts 226°
2026-05-07 12:30 41.76259 -87.77992 3009 ft 169 kts 227°
2026-05-07 12:30 41.75379 -87.79092 3576 ft 181 kts 227°
2026-05-07 12:30 41.74336 -87.80195 3978 ft 205 kts 210°
2026-05-07 12:31 41.72840 -87.80517 4338 ft 240 kts 172°
2026-05-07 12:31 41.71287 -87.79419 4759 ft 271 kts 134°
2026-05-07 12:31 41.70422 -87.77138 5445 ft 283 kts 97°
2026-05-07 12:31 41.70456 -87.74499 6306 ft 286 kts 77°
2026-05-07 12:32 41.70877 -87.71906 7260 ft 286 kts 71°
2026-05-07 12:32 41.71376 -87.69301 8129 ft 293 kts 71°
2026-05-07 12:32 41.71821 -87.66628 8940 ft 301 kts 74°
2026-05-07 12:32 41.72179 -87.63827 9809 ft 308 kts 77°
2026-05-07 12:33 41.72718 -87.57800 10695 ft 349 kts 81°
2026-05-07 12:33 41.72950 -87.54510 11304 ft 359 kts 82°
2026-05-07 12:33 41.73169 -87.51145 12043 ft 366 kts 83°
2026-05-07 12:34 41.73388 -87.47730 12793 ft 372 kts 84°
2026-05-07 12:34 41.73613 -87.44255 13539 ft 377 kts 84°
2026-05-07 12:34 41.73849 -87.40732 14225 ft 383 kts 84°
2026-05-07 12:34 41.74094 -87.37154 14888 ft 388 kts 84°
2026-05-07 12:35 41.74342 -87.33533 15548 ft 393 kts 84°
2026-05-07 12:35 41.74595 -87.29861 16226 ft 398 kts 84°
2026-05-07 12:35 41.74854 -87.26151 16867 ft 403 kts 84°
2026-05-07 12:35 41.75117 -87.22389 17512 ft 407 kts 84°
2026-05-07 12:36 41.75377 -87.18594 18157 ft 412 kts 84°
2026-05-07 12:36 41.75633 -87.14793 18725 ft 417 kts 84°
2026-05-07 12:36 41.75891 -87.10911 19279 ft 421 kts 84°
2026-05-07 12:36 41.76151 -87.06979 19839 ft 426 kts 85°
2026-05-07 12:37 41.76342 -87.03005 20395 ft 430 kts 87°
2026-05-07 12:37 41.76432 -86.98981 20955 ft 434 kts 89°
2026-05-07 12:37 41.76453 -86.94907 21511 ft 439 kts 90°
2026-05-07 12:37 41.76445 -86.90804 22073 ft 443 kts 90°
2026-05-07 12:38 41.76438 -86.86649 22631 ft 447 kts 90°
2026-05-07 12:38 41.76447 -86.82466 23172 ft 451 kts 90°
2026-05-07 12:38 41.76477 -86.78245 23694 ft 455 kts 89°
2026-05-07 12:38 41.76522 -86.73980 24113 ft 460 kts 89°
2026-05-07 12:39 41.76571 -86.69671 24511 ft 465 kts 89°
2026-05-07 12:39 41.76620 -86.65325 24905 ft 469 kts 90°
2026-05-07 12:39 41.76667 -86.60940 25289 ft 473 kts 90°
2026-05-07 12:39 41.76709 -86.56511 25653 ft 478 kts 90°
2026-05-07 12:40 41.76743 -86.52047 26040 ft 481 kts 91°
2026-05-07 12:40 41.76769 -86.47543 26406 ft 485 kts 91°
2026-05-07 12:40 41.76792 -86.43001 26761 ft 490 kts 91°
2026-05-07 12:40 41.76815 -86.38421 27110 ft 494 kts 91°
2026-05-07 12:41 41.76841 -86.33801 27454 ft 498 kts 91°
2026-05-07 12:41 41.76853 -86.29151 27793 ft 501 kts 92°
2026-05-07 12:41 41.76797 -86.24464 28124 ft 505 kts 94°
2026-05-07 12:41 41.76682 -86.19745 28455 ft 509 kts 95°
2026-05-07 12:42 41.76257 -86.15050 28755 ft 506 kts 109°
2026-05-07 12:42 41.75065 -86.10668 29006 ft 497 kts 124°
2026-05-07 12:42 41.73223 -86.06907 29058 ft 467 kts 140°
2026-05-07 12:42 41.70975 -86.03958 29052 ft 446 kts 149°
2026-05-07 12:43 41.66329 -85.98499 29054 ft 444 kts 149°
2026-05-07 12:43 41.61693 -85.93062 29055 ft 443 kts 149°
2026-05-07 12:44 41.57088 -85.87639 29054 ft 444 kts 149°
2026-05-07 12:44 41.52463 -85.82186 29054 ft 444 kts 149°
2026-05-07 12:45 41.47833 -85.76744 29010 ft 443 kts 149°
2026-05-07 12:45 41.43185 -85.71318 29058 ft 445 kts 149°
2026-05-07 12:46 41.38524 -85.65866 29065 ft 445 kts 149°
2026-05-07 12:46 41.33872 -85.60422 29064 ft 445 kts 149°
2026-05-07 12:47 41.29216 -85.54996 29058 ft 444 kts 150°
2026-05-07 12:47 41.24559 -85.49590 29038 ft 444 kts 150°
2026-05-07 12:48 41.19882 -85.44159 29059 ft 446 kts 150°
2026-05-07 12:48 41.15241 -85.38782 29042 ft 445 kts 150°
2026-05-07 12:49 41.10564 -85.33389 29059 ft 445 kts 150°
2026-05-07 12:49 41.05893 -85.28012 29055 ft 445 kts 150°
2026-05-07 12:50 41.01232 -85.22638 28678 ft 443 kts 148°
2026-05-07 12:50 40.99088 -85.19653 28405 ft 452 kts 138°
2026-05-07 12:50 40.97299 -85.16203 27935 ft 459 kts 127°
2026-05-07 12:51 40.95939 -85.12357 27443 ft 464 kts 118°
2026-05-07 12:51 40.94762 -85.08403 26949 ft 461 kts 118°
2026-05-07 12:51 40.93579 -85.04488 26474 ft 457 kts 119°
2026-05-07 12:51 40.92391 -85.00592 25999 ft 454 kts 119°
2026-05-07 12:52 40.91204 -84.96729 25519 ft 452 kts 119°
2026-05-07 12:52 40.90019 -84.92892 25030 ft 450 kts 119°
2026-05-07 12:52 40.88845 -84.89085 24541 ft 448 kts 119°
2026-05-07 12:52 40.87670 -84.85261 24031 ft 446 kts 118°
2026-05-07 12:53 40.86504 -84.81473 23516 ft 445 kts 118°
2026-05-07 12:53 40.85353 -84.77738 22973 ft 442 kts 118°
2026-05-07 12:53 40.84206 -84.74012 22701 ft 433 kts 118°
2026-05-07 12:53 40.83079 -84.70355 22402 ft 426 kts 118°
2026-05-07 12:54 40.81965 -84.66756 22084 ft 421 kts 118°
2026-05-07 12:54 40.80853 -84.63185 21798 ft 420 kts 118°
2026-05-07 12:54 40.79744 -84.59630 21518 ft 417 kts 118°
2026-05-07 12:54 40.78643 -84.56094 21227 ft 415 kts 118°
2026-05-07 12:55 40.77550 -84.52578 20907 ft 414 kts 118°
2026-05-07 12:55 40.76462 -84.49070 20636 ft 413 kts 118°
2026-05-07 12:55 40.75377 -84.45579 20354 ft 410 kts 118°
2026-05-07 12:55 40.74295 -84.42103 20072 ft 408 kts 118°
2026-05-07 12:56 40.73219 -84.38653 19780 ft 405 kts 118°
2026-05-07 12:56 40.72148 -84.35233 19498 ft 403 kts 118°
2026-05-07 12:56 40.71081 -84.31832 19216 ft 400 kts 117°
2026-05-07 12:56 40.70016 -84.28450 18928 ft 398 kts 118°
2026-05-07 12:57 40.68958 -84.25092 18657 ft 396 kts 117°
2026-05-07 12:57 40.67906 -84.21754 18381 ft 393 kts 117°
2026-05-07 12:57 40.66875 -84.18472 18083 ft 391 kts 117°
2026-05-07 12:57 40.65839 -84.15176 17770 ft 388 kts 117°
2026-05-07 12:58 40.64807 -84.11904 17490 ft 386 kts 117°
2026-05-07 12:58 40.63782 -84.08657 17238 ft 384 kts 117°
2026-05-07 12:58 40.62761 -84.05425 16964 ft 381 kts 117°
2026-05-07 12:58 40.61741 -84.02210 16694 ft 379 kts 117°
2026-05-07 12:59 40.60724 -83.99015 16430 ft 377 kts 116°
2026-05-07 12:59 40.59712 -83.95843 16169 ft 375 kts 116°
2026-05-07 12:59 40.58707 -83.92693 15905 ft 372 kts 116°
2026-05-07 12:59 40.57709 -83.89558 15641 ft 371 kts 116°
2026-05-07 13:00 40.56719 -83.86444 15387 ft 369 kts 116°
2026-05-07 13:00 40.55727 -83.83325 15137 ft 367 kts 116°
2026-05-07 13:00 40.54755 -83.80273 14881 ft 365 kts 116°
2026-05-07 13:00 40.53775 -83.77210 14627 ft 363 kts 116°
2026-05-07 13:01 40.52795 -83.74162 14374 ft 361 kts 116°
2026-05-07 13:01 40.51820 -83.71134 14120 ft 358 kts 116°
2026-05-07 13:01 40.50851 -83.68129 13866 ft 356 kts 115°
2026-05-07 13:01 40.49888 -83.65134 13598 ft 354 kts 115°
2026-05-07 13:02 40.48933 -83.62158 13350 ft 352 kts 115°
2026-05-07 13:02 40.47984 -83.59201 13106 ft 350 kts 115°
2026-05-07 13:02 40.47035 -83.56263 12857 ft 348 kts 115°
2026-05-07 13:02 40.46089 -83.53340 12607 ft 347 kts 115°
2026-05-07 13:03 40.45150 -83.50435 12369 ft 345 kts 115°
2026-05-07 13:03 40.44111 -83.47614 12129 ft 341 kts 124°
2026-05-07 13:03 40.42756 -83.45083 11891 ft 337 kts 130°
2026-05-07 13:03 40.41365 -83.42606 11651 ft 336 kts 130°
2026-05-07 13:04 40.39986 -83.40145 11422 ft 334 kts 129°
2026-05-07 13:04 40.38616 -83.37695 11190 ft 332 kts 129°
2026-05-07 13:04 40.37253 -83.35256 10949 ft 331 kts 129°
2026-05-07 13:04 40.35898 -83.32835 10721 ft 329 kts 129°
2026-05-07 13:05 40.34548 -83.30424 10486 ft 327 kts 129°
2026-05-07 13:05 40.33203 -83.28026 10259 ft 325 kts 129°
2026-05-07 13:05 40.31868 -83.25665 10066 ft 317 kts 132°
2026-05-07 13:05 40.30350 -83.23654 9799 ft 306 kts 145°
2026-05-07 13:06 40.28714 -83.21970 9695 ft 302 kts 146°
2026-05-07 13:06 40.27066 -83.20266 9502 ft 301 kts 146°
2026-05-07 13:06 40.25427 -83.18565 9304 ft 300 kts 145°
2026-05-07 13:06 40.23791 -83.16864 9095 ft 299 kts 145°
2026-05-07 13:07 40.22165 -83.15174 8885 ft 298 kts 146°
2026-05-07 13:07 40.20589 -83.13414 8684 ft 299 kts 137°
2026-05-07 13:07 40.19315 -83.11263 8464 ft 301 kts 125°
2026-05-07 13:07 40.18187 -83.08954 8262 ft 300 kts 125°
2026-05-07 13:08 40.17062 -83.06664 8061 ft 299 kts 125°
2026-05-07 13:08 40.15927 -83.04398 7855 ft 297 kts 127°
2026-05-07 13:08 40.14763 -83.02168 7646 ft 296 kts 127°
2026-05-07 13:08 40.13592 -82.99968 7445 ft 294 kts 127°
2026-05-07 13:09 40.12422 -82.97781 7240 ft 293 kts 127°
2026-05-07 13:09 40.11275 -82.95628 7035 ft 283 kts 127°
2026-05-07 13:09 40.10147 -82.93538 6578 ft 285 kts 126°
2026-05-07 13:09 40.09266 -82.91240 6337 ft 279 kts 110°
2026-05-07 13:10 40.08879 -82.88814 6203 ft 268 kts 95°
2026-05-07 13:10 40.08751 -82.86441 6066 ft 256 kts 94°
2026-05-07 13:10 40.08634 -82.84195 5930 ft 247 kts 94°
2026-05-07 13:10 40.08522 -82.81972 5658 ft 244 kts 94°
2026-05-07 13:11 40.08411 -82.79754 5488 ft 238 kts 94°
2026-05-07 13:11 40.08305 -82.77628 5357 ft 231 kts 94°
2026-05-07 13:11 40.08182 -82.75600 5219 ft 224 kts 101°
2026-05-07 13:11 40.07589 -82.73763 5021 ft 217 kts 130°
2026-05-07 13:12 40.06474 -82.72535 4817 ft 206 kts 158°
2026-05-07 13:12 40.05127 -82.72056 4530 ft 201 kts 176°
2026-05-07 13:12 40.03734 -82.71784 4249 ft 202 kts 175°
2026-05-07 13:12 40.02336 -82.71506 3965 ft 203 kts 176°
2026-05-07 13:13 40.00946 -82.71582 3707 ft 198 kts 199°
2026-05-07 13:13 40.00121 -82.72028 3582 ft 189 kts 216°
2026-05-07 13:13 39.99189 -82.73098 3461 ft 167 kts 237°
2026-05-07 13:13 39.98677 -82.74322 3339 ft 144 kts 255°
2026-05-07 13:14 39.98501 -82.75521 3144 ft 129 kts 271°
2026-05-07 13:14 39.98548 -82.76678 2839 ft 127 kts 277°
2026-05-07 13:14 39.98604 -82.77838 2586 ft 129 kts 277°
2026-05-07 13:14 39.98675 -82.79002 2372 ft 128 kts 278°
2026-05-07 13:15 39.98750 -82.80176 2122 ft 128 kts 278°
2026-05-07 13:15 39.98825 -82.81332 1879 ft 128 kts 277°
2026-05-07 13:15 39.98898 -82.82485 1625 ft 128 kts 275°
2026-05-07 13:15 39.98946 -82.83655 1416 ft 129 kts 275°
2026-05-07 13:16 39.99010 -82.84826 1275 ft 131 kts 275°
2026-05-07 13:16 39.99082 -82.86025 1082 ft 132 kts 275°
2026-05-07 13:16 39.99150 -82.87189 879 ft 127 kts 276°
2026-05-07 13:16 39.99218 -82.88283 822 ft 105 kts 274°
2026-05-07 13:17 39.99259 -82.89007 822 ft 55 kts 274°
2026-05-07 13:17 39.99285 -82.89322 817 ft 26 kts 285°
2026-05-07 13:17 39.99332 -82.89542 822 ft 25 kts 288°
2026-05-07 13:17 39.99425 -82.89687 823 ft 17 kts 352°
2026-05-07 13:18 39.99468 -82.89579 824 ft 14 kts 97°
2026-05-07 13:18 39.99459 -82.89461 826 ft 14 kts 95°
2026-05-07 13:18 39.99448 -82.89271 825 ft 26 kts 94°
2026-05-07 13:18 39.99437 -82.89045 822 ft 25 kts 94°
2026-05-07 13:19 39.99423 -82.88813 821 ft 27 kts 94°
2026-05-07 13:19 39.99405 -82.88566 819 ft 24 kts 97°
2026-05-07 13:19 39.99403 -82.88368 817 ft 18 kts 59°
2026-05-07 13:19 39.99522 -82.88318 818 ft 19 kts
2026-05-07 13:20 39.99586 -82.88418 817 ft 12 kts 275°
2026-05-07 13:20 39.99605 -82.88509 814 ft 10 kts 327°
2026-05-07 13:20 39.99651 -82.88495 821 ft 4 kts 16°
2026-05-07 13:20 39.99655 -82.88493 821 ft 0 kts 15°